Patterson, LA

2:33 PM CST on November 17, 2019 (GMT -0600)
Williams Memorial

Weather History for KPTN - October, 2019

Change the Weather History Date:

Tuesday, October 22, 2019

  Actual Average Record
Temperature  
Mean Temperature 64 °F -  
Max Temperature 75 °F 76 °F 87 °F (2004)
Min Temperature 54 °F 57 °F 46 °F (1999)
Growing Degree Days 14 (Base 50)    
Moisture  
Dew Point 53 °F    
Average Humidity 70    
Maximum Humidity 97    
Minimum Humidity 31    
Precipitation  
Precipitation 0.00 in - - ()
Sea Level Pressure  
Sea Level Pressure 30.12 in    
Wind  
Wind Speed 7 mph (North)    
Max Wind Speed 13 mph    
Max Gust Speed 22 mph    
Visibility 10 miles    
Events      
Averages and records for this station are not official NWS values.
T = Trace of Precipitation, MM = Missing Value Source: NWS Daily Summary

Daily Weather History Graph

Daily Weather History Graph

Search for Another Location

Airport or City:

Astronomy

Oct. 22, 2019 Rise Set
Actual Time 7:11 AM CDT 6:27 PM CDT
Civil Twilight 6:47 AM CDT 6:51 PM CDT
Nautical Twilight 6:19 AM CDT 7:19 PM CDT
Astronomical Twilight 5:51 AM CDT 7:47 PM CDT
Moon 12:58 AM CDT (10/22) 3:03 PM CDT (10/22)
Length of Visible Light 12h 04m
Length of Day
11h 16m
Last Quarter, 37% of the Moon is Illuminated
Oct 22
Last Quarter
Oct 27
New
Nov 4
First Quarter
Nov 12
Full
Nov 19
Last Quarter

Hourly Weather History & Observations

Time (CDT) Temp. Dew Point Humidity Pressure Visibility Wind Dir Wind Speed Gust Speed Precip Events Conditions
12:46 AM 68.0 °F 66.2 °F 94% 29.97 in 10.0 mi North 8.1 mph - N/A   Overcast
12:56 AM 68.0 °F 66.0 °F 93% 29.97 in 10.0 mi North 8.1 mph - N/A   Overcast
1:56 AM 66.9 °F 63.0 °F 87% 30.00 in 10.0 mi North 10.4 mph - N/A   Mostly Cloudy
2:56 AM 64.9 °F 63.0 °F 93% 30.03 in 10.0 mi North 5.8 mph - N/A   Clear
3:56 AM 64.0 °F 62.1 °F 93% 30.04 in 10.0 mi North 5.8 mph - N/A   Clear
5:56 AM 61.0 °F 57.9 °F 90% 30.09 in 10.0 mi North 4.6 mph - N/A   Clear
6:56 AM 60.1 °F 57.9 °F 93% 30.11 in 10.0 mi North 5.8 mph - N/A   Clear
7:56 AM 60.1 °F 57.9 °F 93% 30.13 in 10.0 mi North 3.5 mph - N/A   Clear
8:56 AM 63.0 °F 57.9 °F 84% 30.17 in 10.0 mi NNE 5.8 mph - N/A   Clear
9:56 AM 66.0 °F 55.0 °F 68% 30.18 in 10.0 mi North 5.8 mph - N/A   Clear
10:56 AM 70.0 °F 52.0 °F 53% 30.18 in 10.0 mi NNE 10.4 mph - N/A   Clear
11:56 AM 73.0 °F 48.9 °F 42% 30.17 in 10.0 mi NNE 8.1 mph - N/A   Clear
12:56 PM 73.9 °F 45.0 °F 35% 30.16 in 10.0 mi NNE 8.1 mph - N/A   Clear
1:56 PM 75.0 °F 43.0 °F 32% 30.13 in 10.0 mi North 11.5 mph - N/A   Clear
2:56 PM 75.0 °F 44.1 °F 33% 30.12 in 10.0 mi North 12.7 mph 21.9 mph N/A   Clear
3:56 PM 75.9 °F 43.0 °F 31% 30.12 in 10.0 mi North 12.7 mph 16.1 mph N/A   Clear
4:56 PM 73.9 °F 43.0 °F 33% 30.12 in 10.0 mi NNE 10.4 mph - N/A   Clear
5:56 PM 71.1 °F 46.0 °F 41% 30.13 in 10.0 mi North 6.9 mph - N/A   Clear
6:56 PM 66.9 °F 44.1 °F 44% 30.15 in 10.0 mi North 5.8 mph - N/A   Clear
7:56 PM 60.1 °F 48.9 °F 67% 30.16 in 10.0 mi NE 3.5 mph - N/A   Clear
8:56 PM 55.9 °F 54.0 °F 93% 30.17 in 10.0 mi Calm Calm - N/A   Clear
9:56 PM 55.0 °F 54.0 °F 96% 30.18 in 10.0 mi Calm Calm - N/A   Clear
10:56 PM 54.0 °F 53.1 °F 97% 30.18 in 10.0 mi Calm Calm - N/A   Clear
11:56 PM 54.0 °F 53.1 °F 97% 30.17 in 10.0 mi Calm Calm - N/A   Clear